Skip Page Navigation
NASA JPL Caltech
NASA Logo - Jet Propulsion Laboratory + View the NASA Portal
+ Near-Earth Object (NEO) Project
Search JPL
JPL Home Earth Solar System Stars & Galaxies Technology
JPL Solar System Dynamics
BODIES ORBITS EPHEMERIDES TOOLS PHYSICAL DATA DISCOVERY FAQ SITE MAP
JPL Small-Body Database Browser
Search: [ help ]  
18084 Adamwohl (2000 HP47)
Classification: Main-belt Asteroid          SPK-ID: 2018084
Ephemeris | Orbit Diagram | Orbital Elements | Physical Parameters | Discovery Circumstances ]

[ show orbit diagram ]
Orbital Elements at Epoch 2455200.5 (2010-Jan-04.0) TDB
Reference: MPO87257 (heliocentric ecliptic J2000)
 Element Value Uncertainty (1-sigma)   Units 
e 0.1429455 n/a  
a 2.4425198 n/a AU
q 2.0933726 n/a AU
i 5.86212 n/a deg
node 207.90823 n/a deg
peri 91.06458 n/a deg
M 131.59273 n/a deg
tp 2454690.8348240
(2008-Aug-12.33482401)
n/a JED
period 1394.2978717
3.82
n/a
n/a
d
yr
n 0.25819447 n/a deg/d
Q 2.7916670 n/a AU
  Orbit Determination Parameters
   # obs. used (total)      365  
   first obs. used      1986-??-??  
   last obs. used      2005-10-06  
   # oppositions      12  
   planetary ephem.      DE403  
   quality code      0  
   fit RMS      0.64  
   data source      MPC:mpn  
   producer      MPC  

Additional Information
 T_jup = 3.479 

Ephemeris | Orbit Diagram | Orbital Elements | Physical Parameters | Discovery Circumstances ]

Physical Parameter Table
Parameter Symbol Value Units Sigma Reference Notes
absolute magnitude H 15.1 mag n/a PDS3 (MPO 4240)  

18084 Adamwohl           Discovered 2000 Apr. 29 by the Lincoln Laboratory Near-Earth Asteroid Research Team at Socorro.
Adam Richard Wohl (b. 1984) was awarded second place in the 2003 Intel International Science and Engineering Fair for his botany project. He attends the Minot High School, Magic City Campus, Minot, North Dakota, U.S.A.
NOTE: some special characters may not display properly (any characters within {} are an attempt to place the proper accent above a character)
Reference: 20040614/MPCPages.arcLast Updated: 2009-12-11

Alternate Designations
 2000 HP47 = 1989 OT 
Ephemeris | Orbit Diagram | Orbital Elements | Physical Parameters | Discovery Circumstances ]
ABOUT SSD CREDITS/AWARDS PRIVACY/COPYRIGHT GLOSSARY LINKS
FirstGov 2010-Feb-10 07:47 UT
(server date/time)  
NASA Home Page
Site Manager:   Donald K. Yeomans
Webmaster  Alan B. Chamberlin